GW1618 Weather Reports


time (UTC)temp
F
wind
direction
speed
knots
gust
knots
rain 1hr
in
rain 24hr
in
rain mn
in
humidity
%
barometer
mb
20260831130301 55 9 0.0 1.7 0.00 0.00 0.00 86 1013.3
20260831130051 55 9 0.0 0.9 0.00 0.00 0.00 86 1013.3
20260831125552 55 9 0.0 1.7 0.00 0.00 0.00 86 1013.3
20260831125102 55 9 0.9 1.7 0.00 0.00 0.00 86 1013.3
20260831124302 55 9 0.9 1.7 0.00 0.00 0.00 86 1013.3
20260831123801 55 9 0.0 0.9 0.00 0.00 0.00 87 1013.4
20260831123308 56 9 0.0 0.9 0.00 0.00 0.00 87 1013.4
20260831123055 56 9 0.0 0.9 0.00 0.00 0.00 86 1013.4
20260831122256 56 9 0.0 0.9 0.00 0.00 0.00 86 1013.4
20260831121756 56 9 0.0 0.0 0.00 0.00 0.00 86 1013.4
20260831121237 56 9 0.0 0.0 0.00 0.00 0.00 86 1013.4
20260831120731 56 9 0.0 0.9 0.00 0.00 0.00 86 1013.6
20260831120226 56 9 0.0 0.9 0.00 0.00 0.00 86 1013.6
20260831115723 56 9 0.0 0.9 0.00 0.00 0.00 85 1013.6
20260831115223 56 9 0.0 0.9 0.00 0.00 0.00 85 1013.7
20260831114711 56 9 0.9 1.7 0.00 0.00 0.00 85 1013.7
20260831114208 56 9 0.9 1.7 0.00 0.00 0.00 85 1013.7
20260831113702 56 9 0.9 1.7 0.00 0.00 0.00 85 1013.8
20260831113206 56 9 0.9 1.7 0.00 0.00 0.00 85 1013.8
20260831112706 56 9 0.9 1.7 0.00 0.00 0.00 85 1013.8
20260831112512 56 9 0.9 2.6 0.00 0.00 0.00 84 1013.9
20260831111706 56 9 1.7 2.6 0.00 0.00 0.00 85 1013.9
20260831111205 56 4 0.9 2.6 0.00 0.00 0.00 85 1013.9
20260831110703 56 359 1.7 2.6 0.00 0.00 0.00 84 1013.9
20260831110137 56 359 1.7 2.6 0.00 0.00 0.00 84 1013.9
20260831105635 56 17 1.7 2.6 0.00 0.00 0.00 83 1013.9
20260831105133 56 339 0.9 2.6 0.00 0.00 0.00 83 1013.9
20260831104636 56 21 0.9 1.7 0.00 0.00 0.00 83 1013.9
20260831104131 56 21 0.9 1.7 0.00 0.00 0.00 83 1014.0
20260831103632 56 21 0.9 1.7 0.00 0.00 0.00 83 1014.0
20260831103132 56 21 0.0 1.7 0.00 0.00 0.00 82 1014.0
20260831102625 56 21 0.0 0.9 0.00 0.00 0.00 82 1014.1
20260831102128 56 21 0.0 0.9 0.00 0.00 0.00 81 1014.1
20260831101628 57 20 0.9 1.7 0.00 0.00 0.00 81 1014.1
20260831101106 57 21 0.9 1.7 0.00 0.00 0.00 81 1014.4
20260831100609 57 21 0.9 1.7 0.00 0.00 0.00 80 1014.4
20260831100145 57 21 0.9 1.7 0.00 0.00 0.00 80 1014.4
20260831094603 57 21 0.0 0.9 0.00 0.00 0.00 80 1014.4
20260831094104 57 21 0.0 0.9 0.00 0.00 0.00 80 1014.5
20260831093553 57 21 0.0 0.9 0.00 0.00 0.00 80 1014.5
20260831093050 57 21 0.0 1.7 0.00 0.00 0.00 80 1014.5
20260831092606 58 21 0.9 2.6 0.00 0.00 0.00 80 1014.4
20260831092054 58 20 1.7 2.6 0.00 0.00 0.00 80 1014.4
20260831091546 58 9 1.7 2.6 0.00 0.00 0.00 80 1014.4
20260831091042 58 4 2.6 3.5 0.00 0.00 0.00 80 1014.6
20260831090540 58 15 2.6 3.5 0.00 0.00 0.00 79 1014.6
20260831090039 58 359 2.6 3.5 0.00 0.00 0.00 79 1014.6
20260831085545 58 346 1.7 3.5 0.00 0.00 0.00 79 1014.9
20260831085036 58 4 1.7 2.6 0.00 0.00 0.00 79 1014.9
20260831084532 58 17 2.6 3.5 0.00 0.00 0.00 79 1014.9
20260831084033 58 31 2.6 3.5 0.00 0.00 0.00 78 1015.0
20260831083528 58 29 1.7 2.6 0.00 0.00 0.00 78 1015.0
20260831083029 58 32 1.7 2.6 0.00 0.00 0.00 79 1015.0
20260831082824 58 65 0.9 1.7 0.00 0.00 0.00 80 1015.0
20260831082021 59 13 0.9 1.7 0.00 0.00 0.00 79 1015.0
20260831081515 59 13 0.9 1.7 0.00 0.00 0.00 79 1015.0
20260831081010 59 17 0.0 1.7 0.00 0.00 0.00 79 1015.1
20260831080511 59 17 0.9 1.7 0.00 0.00 0.00 80 1015.1
20260831080003 59 17 0.9 2.6 0.00 0.00 0.00 79 1015.1
20260831075724 59 17 0.9 2.6 0.00 0.00 0.00 79 1015.1
20260831074955 59 9 1.7 2.6 0.00 0.00 0.00 79 1015.1
20260831074435 59 9 1.7 2.6 0.00 0.00 0.00 79 1015.1
20260831073937 60 9 0.9 1.7 0.00 0.00 0.00 78 1015.4
20260831073433 60 9 1.7 2.6 0.00 0.00 0.00 78 1015.4
20260831072931 60 9 1.7 2.6 0.00 0.00 0.00 77 1015.4
20260831072438 60 9 1.7 2.6 0.00 0.00 0.00 77 1015.4
20260831071936 60 9 1.7 2.6 0.00 0.00 0.00 76 1015.4
20260831071433 60 9 1.7 2.6 0.00 0.00 0.00 77 1015.4
20260831070929 60 9 1.7 2.6 0.00 0.00 0.00 76 1015.5
20260831070430 60 9 0.9 2.6 0.00 0.00 0.00 77 1015.5
20260831065932 60 20 1.7 2.6 0.00 0.00 0.00 77 1015.5
20260831065419 60 30 1.7 2.6 0.00 0.00 0.00 77 1015.6
20260831064921 60 15 1.7 2.6 0.00 0.00 0.00 76 1015.6
20260831064419 60 13 0.9 1.7 0.00 0.00 0.00 76 1015.6
20260831063910 61 43 0.9 1.7 0.00 0.00 0.00 76 1015.8
20260831063405 61 21 0.9 1.7 0.00 0.00 0.00 74 1015.8
20260831062906 61 9 0.9 1.7 0.00 0.00 0.00 74 1015.8
20260831062404 61 9 0.9 1.7 0.00 0.00 0.00 74 1015.9
20260831062202 61 9 0.9 1.7 0.00 0.00 0.00 74 1015.9
20260831061402 61 9 1.7 2.6 0.00 0.00 0.00 72 1015.9
20260831061205 62 23 1.7 2.6 0.00 0.00 0.00 72 1015.9
20260831060402 62 9 1.7 2.6 0.00 0.00 0.00 71 1015.9
20260831055902 62 9 1.7 2.6 0.00 0.00 0.00 71 1015.9
20260831055405 62 4 2.6 3.5 0.00 0.00 0.00 70 1016.0
20260831055154 63 351 2.6 3.5 0.00 0.00 0.00 70 1016.0
20260831054654 63 350 1.7 2.6 0.00 0.00 0.00 69 1016.0
20260831053906 63 346 2.6 3.5 0.00 0.00 0.00 68 1016.1
20260831053410 63 341 2.6 4.3 0.00 0.00 0.00 68 1016.1
20260831052909 63 345 2.6 4.3 0.00 0.00 0.00 69 1016.1
20260831052402 63 9 2.6 4.3 0.00 0.00 0.00 69 1016.3
20260831051904 63 9 1.7 4.3 0.00 0.00 0.00 68 1016.3
20260831051711 63 23 2.6 4.3 0.00 0.00 0.00 69 1016.3
20260831050902 63 26 2.6 5.2 0.00 0.00 0.00 70 1016.3
20260831050407 63 9 3.5 5.2 0.00 0.00 0.00 69 1016.3
20260831045914 63 9 2.6 4.3 0.00 0.00 0.00 68 1016.3
20260831045409 63 9 2.6 4.3 0.00 0.00 0.00 69 1016.4
20260831044854 63 15 1.7 3.5 0.00 0.00 0.00 66 1016.4
20260831044353 63 35 1.7 3.5 0.00 0.00 0.00 65 1016.4
20260831043848 63 9 2.6 3.5 0.00 0.00 0.00 63 1016.5
20260831043656 63 344 2.6 3.5 0.00 0.00 0.00 65 1016.5
20260831042834 63 354 1.7 3.5 0.00 0.00 0.00 65 1016.5
20260831042358 64 359 1.7 3.5 0.00 0.00 0.00 64 1016.5
20260831041310 64 38 0.9 3.5 0.00 0.00 0.00 64 1016.5
20260831041110 64 65 0.9 2.6 0.00 0.00 0.00 64 1016.5
20260831040304 64 19 0.9 1.7 0.00 0.00 0.00 62 1016.5
20260831040115 64 19 0.9 2.6 0.00 0.00 0.00 60 1016.5
20260831035306 65 22 0.9 2.6 0.00 0.00 0.00 58 1016.2
20260831035110 65 359 0.9 1.7 0.00 0.00 0.00 57 1016.2
20260831034303 65 346 1.7 2.6 0.00 0.00 0.00 54 1016.2
20260831033803 66 346 1.7 3.5 0.00 0.00 0.00 54 1016.1
20260831033304 66 350 1.7 3.5 0.00 0.00 0.00 55 1016.1
20260831032758 66 342 1.7 2.6 0.00 0.00 0.00 54 1016.1
20260831032301 66 13 1.7 2.6 0.00 0.00 0.00 54 1016.0
20260831031749 67 359 1.7 3.5 0.00 0.00 0.00 53 1016.0
20260831031250 67 359 1.7 3.5 0.00 0.00 0.00 53 1016.0
20260831030738 68 346 1.7 4.3 0.00 0.00 0.00 51 1016.0
20260831030243 68 53 1.7 4.3 0.00 0.00 0.00 47 1016.0
20260831025738 68 57 1.7 3.5 0.00 0.00 0.00 47 1016.0
20260831025239 68 58 1.7 3.5 0.00 0.00 0.00 47 1016.1
20260831025029 69 71 2.6 4.3 0.00 0.00 0.00 47 1016.1
20260831024536 69 64 2.6 5.2 0.00 0.00 0.00 47 1016.1
20260831023733 69 76 3.5 5.2 0.00 0.00 0.00 46 1016.3
20260831023232 69 86 3.5 7.0 0.00 0.00 0.00 45 1016.3
20260831022730 69 104 3.5 7.0 0.00 0.00 0.00 45 1016.3
20260831022218 70 88 3.5 6.1 0.00 0.00 0.00 44 1016.5
20260831021716 70 76 3.5 6.1 0.00 0.00 0.00 44 1016.5
20260831021209 70 80 3.5 6.1 0.00 0.00 0.00 44 1016.5
20260831021016 70 60 3.5 6.1 0.00 0.00 0.00 44 1016.5
20260831020213 70 81 4.3 8.7 0.00 0.00 0.00 43 1016.5
20260831015715 70 69 4.3 8.7 0.00 0.00 0.00 43 1016.5
20260831015210 70 54 4.3 7.8 0.00 0.00 0.00 43 1016.5
20260831015011 70 55 3.5 7.8 0.00 0.00 0.00 44 1016.5
20260831014207 70 98 3.5 6.1 0.00 0.00 0.00 44 1016.5
20260831013706 70 21 3.5 6.1 0.00 0.00 0.00 48 1016.5
20260831013206 70 20 3.5 6.1 0.00 0.00 0.00 48 1016.5
20260831012706 69 9 3.5 5.2 0.00 0.00 0.00 48 1016.5
20260831012210 69 359 4.3 6.1 0.00 0.00 0.00 49 1016.6
20260831011707 69 347 4.3 6.1 0.00 0.00 0.00 51 1016.6
20260831011204 69 352 3.5 5.2 0.00 0.00 0.00 53 1016.6
20260831010706 69 4 4.3 6.1 0.00 0.00 0.00 49 1016.7
20260831010201 69 359 4.3 6.1 0.00 0.00 0.00 49 1016.7
20260831010030 69 9 4.3 5.2 0.00 0.00 0.00 49 1016.7
20260831005203 69 359 4.3 5.2 0.00 0.00 0.00 47 1016.9
20260831004700 69 15 5.2 7.8 0.00 0.00 0.00 47 1016.9
20260831004157 69 9 5.2 7.8 0.00 0.00 0.00 47 1016.9
20260831003647 69 17 4.3 7.0 0.00 0.00 0.00 47 1017.0
20260831003445 70 313 5.2 6.1 0.00 0.00 0.00 49 1017.0
20260831002632 70 17 5.2 6.1 0.00 0.00 0.00 45 1017.1
20260831002131 70 4 4.3 6.1 0.00 0.00 0.00 47 1017.1
20260831001623 70 9 3.5 6.1 0.00 0.00 0.00 47 1017.1
20260831001120 70 351 2.6 5.2 0.00 0.00 0.00 49 1017.2
20260831000605 70 337 2.6 3.5 0.00 0.00 0.00 46 1017.2
20260831000105 70 338 2.6 5.2 0.00 0.00 0.00 48 1017.2
20260830235559 69 4 3.5 5.2 0.00 0.00 0.00 49 1017.4
20260830235054 69 9 4.3 6.1 0.00 0.00 0.00 51 1017.4
20260830234901 68 15 5.2 6.1 0.00 0.00 0.00 48 1017.4
20260830234353 68 13 5.2 6.1 0.00 0.00 0.00 51 1017.5
20260830233546 68 23 4.3 6.1 0.00 0.00 0.00 47 1017.5
20260830233043 69 27 4.3 5.2 0.00 0.00 0.00 48 1017.5
20260830232541 69 359 4.3 6.1 0.00 0.00 0.00 50 1017.6
20260830232335 69 21 4.3 6.1 0.00 0.00 0.00 53 1017.6
20260830231837 69 9 5.2 6.1 0.00 0.00 0.00 49 1017.6
20260830231038 68 19 5.2 7.8 0.00 0.00 0.00 48 1017.6
20260830230902 68 17 5.2 7.8 0.00 0.00 0.00 51 1017.6
20260830230042 68 28 6.1 8.7 0.00 0.00 0.00 50 1017.6
20260830225841 68 28 7.0 8.7 0.00 0.00 0.00 55 1017.9
20260830225038 67 9 7.0 8.7 0.00 0.00 0.00 51 1017.9
20260830224536 67 16 7.0 8.7 0.00 0.00 0.00 51 1017.9
20260830224037 67 17 6.1 8.7 0.00 0.00 0.00 54 1018.1
20260830223630 68 21 5.2 7.8 0.00 0.00 0.00 55 1018.1
20260830222532 67 339 5.2 7.8 0.00 0.00 0.00 57 1018.1
20260830222033 67 18 6.1 7.8 0.00 0.00 0.00 53 1018.1
20260830221530 67 14 7.0 8.7 0.00 0.00 0.00 52 1018.1
20260830221337 67 9 7.8 9.6 0.00 0.00 0.00 51 1018.2
20260830220528 66 9 8.7 9.6 0.00 0.00 0.00 52 1018.2
20260830220017 66 15 7.8 10.4 0.00 0.00 0.00 51 1018.2
20260830215516 67 14 7.0 10.4 0.00 0.00 0.00 56 1018.6
20260830215015 67 9 7.8 9.6 0.00 0.00 0.00 56 1018.6
20260830214823 66 13 8.7 13.0 0.00 0.00 0.00 54 1018.6
20260830214253 66 28 8.7 13.0 0.00 0.00 0.00 55 1018.7
20260830213606 66 359 8.7 11.3 0.00 0.00 0.00 56 1018.7
20260830212513 66 4 7.8 9.6 0.00 0.00 0.00 61 1018.8
20260830212011 66 9 7.8 9.6 0.00 0.00 0.00 57 1018.8
20260830211513 66 9 7.0 9.6 0.00 0.00 0.00 58 1018.8
20260830211012 66 9 5.2 9.6 0.00 0.00 0.00 58 1018.7
20260830210509 67 359 3.5 7.8 0.00 0.00 0.00 57 1018.7
20260830205005 67 21 3.5 7.8 0.00 0.00 0.00 57 1018.8
20260830204506 66 317 3.5 7.8 0.00 0.00 0.00 54 1018.8
20260830204012 66 323 3.5 6.1 0.00 0.00 0.00 59 1019.1
20260830203507 66 353 4.3 6.1 0.00 0.00 0.00 61 1019.1
20260830203006 66 342 3.5 5.2 0.00 0.00 0.00 59 1019.1
20260830202820 65 13 4.3 6.1 0.00 0.00 0.00 61 1019.1
20260830202337 65 9 4.3 6.1 0.00 0.00 0.00 62 1019.1
20260830201817 64 13 5.2 6.1 0.00 0.00 0.00 60 1019.1
20260830201009 64 9 5.2 7.0 0.00 0.00 0.00 62 1019.1
20260830200457 64 13 5.2 8.7 0.00 0.00 0.00 63 1019.1
20260830195948 64 32 5.2 8.7 0.00 0.00 0.00 65 1019.1
20260830195742 63 16 5.2 8.7 0.00 0.00 0.00 68 1019.2
20260830194944 63 4 6.1 9.6 0.00 0.00 0.00 67 1019.2
20260830194448 62 344 7.8 9.6 0.00 0.00 0.00 68 1019.2
20260830193939 62 9 7.8 9.6 0.00 0.00 0.00 67 1019.5
20260830193439 62 16 7.8 10.4 0.00 0.00 0.00 68 1019.5
20260830192937 62 26 8.7 10.4 0.00 0.00 0.00 67 1019.5
20260830192436 62 17 8.7 12.2 0.00 0.00 0.00 70 1019.6
20260830191935 62 9 8.7 12.2 0.00 0.00 0.00 71 1019.6
20260830191438 62 9 7.0 11.3 0.00 0.00 0.00 71 1019.6
20260830190938 62 359 6.1 9.6 0.00 0.00 0.00 70 1019.6
20260830190438 62 9 7.0 9.6 0.00 0.00 0.00 72 1019.6
20260830185936 62 352 7.8 9.6 0.00 0.00 0.00 71 1019.6
20260830185437 61 38 7.0 10.4 0.00 0.00 0.00 71 1019.6
20260830185247 61 352 6.1 10.4 0.00 0.00 0.00 71 1019.6
20260830184433 61 350 5.2 8.7 0.00 0.00 0.00 70 1019.6
20260830183932 62 9 4.3 8.7 0.00 0.00 0.00 71 1019.6
20260830183431 62 344 4.3 7.0 0.00 0.00 0.00 69 1019.6
20260830182932 62 345 4.3 7.0 0.00 0.00 0.00 71 1019.6
20260830182426 62 354 3.5 7.0 0.00 0.00 0.00 69 1019.6
20260830181922 62 102 2.6 7.0 0.00 0.00 0.00 71 1019.6
20260830181410 62 359 3.5 7.0 0.00 0.00 0.00 69 1019.6
20260830180906 61 46 3.5 7.0 0.00 0.00 0.00 72 1019.6
20260830180404 61 71 3.5 5.2 0.00 0.00 0.00 72 1019.6
20260830175900 61 9 3.5 5.2 0.00 0.00 0.00 72 1019.6
20260830175352 61 348 3.5 5.2 0.00 0.00 0.00 71 1019.7
20260830174952 62 335 2.6 5.2 0.00 0.00 0.00 70 1019.7
20260830173849 62 359 1.7 3.5 0.00 0.00 0.00 69 1019.6
20260830173648 62 230 1.7 3.5 0.00 0.00 0.00 68 1019.6
20260830173142 62 146 1.7 3.5 0.00 0.00 0.00 68 1019.6
20260830172338 62 187 0.9 3.5 0.00 0.00 0.00 68 1019.6
20260830171835 62 122 0.9 2.6 0.00 0.00 0.00 69 1019.6
20260830171335 61 165 1.7 3.5 0.00 0.00 0.00 70 1019.6
20260830170831 60 4 0.9 3.5 0.00 0.00 0.00 72 1019.7
20260830170329 60 193 0.9 2.6 0.00 0.00 0.00 73 1019.7
20260830165830 60 270 0.9 2.6 0.00 0.00 0.00 74 1019.7
20260830165329 59 261 1.7 4.3 0.00 0.00 0.00 75 1019.6
20260830164829 59 227 0.9 4.3 0.00 0.00 0.00 74 1019.6
20260830164555 59 219 0.9 2.6 0.00 0.00 0.00 75 1019.6
20260830164332 59 219 0.9 2.6 0.00 0.00 0.00 75 1019.6
20260830163828 58 147 0.9 2.6 0.00 0.00 0.00 76 1019.7
20260830163330 58 173 0.9 1.7 0.00 0.00 0.00 77 1019.7
20260830162829 57 270 0.9 2.6 0.00 0.00 0.00 79 1019.7
20260830162330 57 219 1.7 2.6 0.00 0.00 0.00 79 1019.7
20260830161830 57 242 1.7 3.5 0.00 0.00 0.00 80 1019.7
20260830161336 57 222 1.7 3.5 0.00 0.00 0.00 80 1019.7
20260830160828 56 246 1.7 3.5 0.00 0.00 0.00 81 1019.8
20260830160416 56 234 1.7 3.5 0.00 0.00 0.00 81 1019.8
20260830155307 56 233 1.7 4.3 0.00 0.00 0.00 81 1020.0
20260830154805 56 231 1.7 3.5 0.00 0.00 0.00 82 1020.0
20260830154607 56 242 2.6 4.3 0.00 0.00 0.00 83 1020.0
20260830153805 56 212 2.6 4.3 0.00 0.00 0.00 83 1020.0
20260830153301 56 220 2.6 4.3 0.00 0.00 0.00 84 1020.0
20260830152801 56 228 1.7 3.5 0.00 0.00 0.00 84 1020.0
20260830152305 55 248 2.6 3.5 0.00 0.00 0.00 84 1019.8
20260830151802 55 215 2.6 3.5 0.00 0.00 0.00 84 1019.8
20260830151305 55 217 1.7 3.5 0.00 0.00 0.00 84 1019.8
20260830150805 55 219 2.6 4.3 0.00 0.00 0.00 85 1019.7
20260830150308 55 184 2.6 4.3 0.00 0.00 0.00 85 1019.7
20260830150122 55 217 0.9 4.3 0.00 0.00 0.00 85 1019.7
20260830145348 55 198 0.9 2.6 0.00 0.00 0.00 85 1019.7
20260830144303 55 228 0.9 2.6 0.00 0.00 0.00 86 1019.7
20260830143801 54 217 1.7 3.5 0.00 0.00 0.00 86 1019.7
20260830143302 54 210 1.7 3.5 0.00 0.00 0.00 86 1019.7
20260830142807 54 254 1.7 3.5 0.00 0.00 0.00 86 1019.7
20260830142610 54 229 1.7 3.5 0.00 0.00 0.00 86 1019.5
20260830141807 54 265 1.7 3.5 0.00 0.00 0.00 86 1019.5
20260830141301 54 206 1.7 3.5 0.00 0.00 0.00 87 1019.5
20260830140801 54 248 1.7 3.5 0.00 0.00 0.00 87 1019.2
20260830140301 54 242 1.7 3.5 0.00 0.00 0.00 87 1019.2
20260830135802 54 241 1.7 3.5 0.00 0.00 0.00 87 1019.2
20260830135306 54 258 2.6 3.5 0.00 0.00 0.00 87 1019.1
20260830134807 54 259 2.6 3.5 0.00 0.00 0.00 87 1019.1
20260830134306 54 265 1.7 3.5 0.00 0.00 0.00 87 1019.1
20260830133811 54 259 1.7 3.5 0.00 0.00 0.00 87 1019.1
20260830133310 54 213 0.9 2.6 0.00 0.00 0.00 86 1019.1
20260830132805 54 247 0.9 2.6 0.00 0.00 0.00 86 1019.1
20260830132305 54 231 1.7 2.6 0.00 0.00 0.00 86 1019.1
20260830132107 54 187 1.7 3.5 0.00 0.00 0.00 87 1019.1
20260830131313 54 212 1.7 3.5 0.00 0.00 0.00 87 1019.1
20260830131116 54 240 1.7 3.5 0.00 0.00 0.00 87 1019.1